Погода в Итакаре

Бразилия     14°17′27″S   38°59′52″W
темп.,
°C
ветер,
м/с
пор.,
м/с
влажн.,
%
обл.,
%
осадки,
мм/ч
давл.,
гПа
погр.,
м
27 февраля, сб
сб2700:00+24в358787 0.1 1013392
03:00+24юв238576 0.1 1012340
06:00+24юв238759 0.9 1013381
09:00+27вюв346948 1.4 1014881
12:00+28в446470 0.4 1013982
15:00+28вюв456784 0.7 1011956
18:00+25вюв378510 0.3 1011479
21:00+24вюв36878 0.3 1013386
28 февраля, вс
вс2800:00+24ююв138732 0.1 1012384
03:00+22юз249356 0.3 1011181
06:00+22юз359381 0.4 1012166
09:00+25ю378977 3.6 1013502
12:00+27в468581 5.3 1012759
15:00+27вюв468191 8.9 10101109
18:00+25юв598752 1.2 1010584
21:00+24вюв598973 8.3 1012522
1 марта, пн
пн100:00+24вюв4989100 10.2 1011455
03:00+24юв4890100 20.0 1010450
06:00+24вюв489199 5.1 1011437
09:00+26вюв478971 8.0 1013814
12:00+28вюв57681 1.9 10121157
15:00+27юв566710 1.9 10111169
18:00+25вюв4777100 0.1 1011664
21:00+24вюв488083 0.1 1013691
2 марта, вт
вт200:00+24вюв368451 0.3 1013447
03:00+24вюв478728 1.3 1012523
06:00+23юв36880 0.1 1013420
09:00+26вюв56800 0.7 1015966
12:00+28вюв45659 0.3 10141177
15:00+28вюв456118 0.3 10121114
18:00+25вюв477675 0.0 1012632
21:00+24вюв368239 0.1 1014411
3 марта, ср
ср300:00+24в478934 2.6 1015412
03:00+24св238935 7.5 1013341
06:00+22зсз139287 4.0 1015149
09:00+25юз228786 5.9 1017289
12:00+28в236138 1.0 1016916
15:00+28в346519 1.0 10131048
18:00+25вюв35828 0.1 1013429
21:00+24вюв36854 0.2 1015411